2017-008R

Last updated on Tue Feb 28 2017 00:15:03 GMT+0000 (Coordinated Universal Time)

1 41963U 17008R 17058.70147120 .00001475 00000-0 68939-4 0 9998 2 41963 97.5098 120.3034 0008069 209.0419 151.0367 15.21376256 1725
UTC large
Height (km)
Speed (km/s)
/
Latitude / Longitude
Inclination (degrees)
Orbital Period (minutes)
Azimuth
Elevation
Range (km)
Doppler Factor

Next 0 passes for location: London (51.5072 / 0.1276)

Sorry there are no passes over London.
2017-008R